User: anonymous   Login
Location: Feydey
(46.3431°N, 7.0106°E)
Time: 16:58:25
(UTC+00:00)
Language:

Cosmos 1354 Rocket - Orbit

View from above orbital plane
View from above orbital plane
View from above satellite
View from above satellite

Ground track
Ground track

The orbit data is extracted from the following two-line orbital elements,

1 13149U 82037B   21264.78931493  .00000042  00000-0  23776-4 0  9992
2 13149  74.0396 278.1021 0011779 101.1263 259.1214 14.35410526 60763
Epoch (UTC): 21 September 2021 18:56:36
Eccentricity: 0.0011779
inclination: 74.0396°
perigee height: 765 km
apogee height: 782 km
right ascension of ascending node: 278.1021°
argument of perigee: 101.1263°
revolutions per day: 14.35410526
mean anomaly at epoch: 259.1214°
orbit number at epoch: 6076

The dashed part of the orbit path shows where the satellite is in the earth's shadow,  

DLR